[[{"header":{"parameterUnit":"m.s-1","parameterCategory":2,"la1":30.2991,"la2":30.254,"lo1":-89.0895,"lo2":-89.0444,"dy":0.0017,"dx":0.0017,"nx":28,"ny":28,"refTime":"2025-09-14T21:00:00:Z","depth":"0","parameterNumber":2,"parameterNumberName":"U-component_of_CURRENTS"},"data":[0,0,0,0,0,0,0,0,0,0,0,0,0,0,0,0,0,0,0,0,0,0,0,0,0,0,0,0,0,0,0,0,0,0,0,0,0,0,0,0,0,0,0,0,0,0,0,0,0,0,0,0,0,0,0,0,0,0,-0.2714,-0.2715,0,-0.2744,-0.2744,-0.2745,-0.2616,-0.2613,-0.2609,-0.2606,-0.2486,-0.2487,-0.2487,0,0,0,0,0,0,0,0,0,0,0,0,0,-0.2545,-0.2549,-0.2714,-0.2715,-0.2716,-0.2744,-0.2744,-0.2745,-0.2617,-0.2612,-0.2608,-0.2604,-0.2486,-0.2487,-0.2487,0,0,0,0,0,0,0,0,0,0,0,0,0,-0.2598,-0.255,-0.2714,-0.2658,-0.2653,-0.2744,-0.2744,-0.2745,-0.2617,-0.2612,-0.2607,-0.2602,-0.2486,-0.2486,-0.2487,-0.259,0,0,-0.2487,-0.2487,0,0,0,0,0,0,0,0,-0.2595,-0.2604,-0.2666,-0.2662,-0.2657,-0.2674,-0.2641,-0.2687,-0.2619,-0.2627,-0.2606,-0.26,-0.2542,-0.2537,-0.2551,-0.2585,-0.258,-0.2487,-0.2487,-0.2487,-0.2487,0,0,0,0,0,0,0,-0.2592,-0.2602,-0.2723,-0.2667,-0.2662,-0.2631,-0.2632,-0.265,-0.2608,-0.2626,-0.2618,-0.2629,-0.2537,-0.2552,-0.2547,-0.2578,-0.2487,-0.2487,-0.2487,-0.2487,-0.2661,-0.2666,0,0,0,0,0,0,-0.2602,-0.26,-0.2722,-0.2724,-0.2617,-0.2639,-0.264,-0.2671,-0.261,-0.2599,-0.2633,-0.2623,-0.2554,-0.2547,-0.2542,-0.2565,-0.2487,-0.2487,-0.2487,-0.2657,-0.2662,-0.2667,0,0,0,0,0,0,-0.2599,-0.2614,-0.272,-0.2663,-0.2674,-0.2647,-0.2683,-0.2675,-0.2677,-0.2618,-0.2601,-0.2642,-0.255,-0.2542,-0.2569,-0.2562,-0.2487,-0.2487,-0.2651,-0.2658,-0.2665,-0.2672,0,0,0,0,0,0,-0.2594,-0.2613,-0.2638,-0.2665,-0.2678,-0.279,-0.2688,-0.2679,-0.2694,-0.268,-0.2622,-0.2605,-0.2545,-0.257,-0.2569,-0.2561,-0.2487,-0.2645,-0.2654,-0.2663,-0.2666,-0.2678,-0.2689,0,0,0,0,0,-0.2588,-0.267,-0.264,-0.2654,-0.2715,-0.2794,-0.28,-0.2758,-0.27,-0.2733,-0.2689,-0.2606,-0.2623,-0.2575,-0.2572,-0.2563,-0.2641,-0.2652,-0.2662,-0.2661,-0.2676,-0.2689,0,0,0,0,0,0,-0.2608,-0.2666,-0.2632,-0.2723,-0.2753,-0.2773,-0.2808,-0.2781,-0.2779,-0.2749,-0.2672,-0.2658,-0.2683,-0.2665,-0.2613,-0.2655,-0.2618,-0.2629,-0.2619,-0.2632,-0.2644,-0.2553,-0.2487,0,0,0,0,0,-0.2628,-0.2701,-0.2731,-0.28,-0.282,-0.2813,-0.2836,-0.2814,-0.2818,-0.2809,-0.2776,-0.2748,-0.2738,-0.2713,-0.2727,-0.2753,-0.2675,-0.2756,-0.2767,-0.2776,-0.2713,-0.2602,-0.2593,-0.2701,-0.2701,-0.2701,0,0,-0.2655,-0.2695,-0.2733,-0.2809,-0.282,-0.2848,-0.2813,-0.2868,-0.286,-0.2803,-0.2802,-0.2805,-0.277,-0.2786,-0.2793,-0.2749,-0.273,-0.2789,-0.2795,-0.2726,-0.2611,-0.2598,-0.2587,-0.2708,-0.2707,-0.2706,0,0,-0.2719,-0.2779,-0.2827,-0.2861,-0.2897,-0.2908,-0.2927,-0.2959,-0.2939,-0.2983,-0.2915,-0.2909,-0.2938,-0.2865,-0.2837,-0.2938,-0.2817,-0.2972,-0.2907,-0.2803,-0.2788,-0.2775,-0.2731,-0.2713,-0.2944,-0.2945,-0.2945,0,-0.2722,-0.2761,-0.2856,-0.2887,-0.2871,-0.293,-0.2915,-0.2964,-0.2994,-0.2943,-0.2989,-0.2947,-0.2953,-0.285,-0.2894,-0.2944,-0.2883,-0.2837,-0.2802,-0.2787,-0.2772,-0.2729,-0.2709,-0.2946,-0.2946,-0.2946,-0.2946,0,-0.2793,-0.2793,-0.2837,-0.2866,-0.2906,-0.2923,-0.297,-0.3002,-0.3006,-0.2994,-0.2958,-0.2984,-0.2914,-0.2957,-0.2953,-0.2852,-0.2849,-0.2842,-0.273,-0.2758,-0.2718,-0.2695,-0.2948,-0.2948,-0.2947,-0.2947,0,0,-0.2803,-0.2852,-0.2846,-0.2781,-0.2855,-0.2878,-0.2911,-0.2882,-0.2833,-0.291,-0.28,-0.285,-0.2838,-0.281,-0.2807,-0.2732,-0.2653,-0.274,-0.2734,-0.2631,-0.2442,-0.2405,-0.2378,-0.2612,-0.2607,-0.2603,-0.2477,0,-0.2753,-0.2731,-0.2793,-0.2737,-0.2688,-0.2743,-0.2754,-0.2764,-0.2788,-0.2754,-0.2741,-0.2708,-0.279,-0.2756,-0.2697,-0.2673,-0.2585,-0.2689,-0.2485,-0.2479,-0.2384,-0.2346,-0.2242,-0.2113,-0.2455,-0.2451,-0.2448,0,-0.2724,-0.2692,-0.2604,-0.2535,-0.2527,-0.2545,-0.2482,-0.2511,-0.2514,-0.2524,-0.2483,-0.2512,-0.2452,-0.2531,-0.2419,-0.2477,-0.2443,-0.2425,-0.2419,-0.2334,-0.2396,-0.2135,-0.2059,-0.2064,-0.2414,-0.2416,-0.2419,0,-0.2558,-0.2528,-0.2414,-0.2405,-0.2405,-0.2362,-0.2381,-0.2401,-0.2398,-0.2369,-0.2365,-0.2299,-0.2297,-0.2224,-0.2283,-0.2317,-0.2154,-0.2194,-0.2107,-0.2109,-0.1948,-0.1941,-0.1774,-0.203,-0.2031,-0.2031,-0.2031,0,-0.2409,-0.2317,-0.2329,-0.2266,-0.2165,-0.2223,-0.215,-0.2173,-0.2195,-0.2173,-0.2233,-0.22,-0.2215,-0.2178,-0.2184,-0.2096,-0.2073,-0.2046,-0.2034,-0.1968,-0.1965,-0.1906,-0.1956,-0.2026,-0.2027,-0.2028,-0.2029,0,-0.2212,-0.2218,-0.21,-0.2075,-0.2077,-0.2016,-0.2065,-0.2038,-0.2083,-0.2058,-0.2051,-0.2104,-0.2054,-0.2067,-0.1974,-0.1979,-0.1852,-0.1851,-0.1816,-0.18,-0.1714,-0.1773,-0.1567,-0.1524,-0.1697,-0.1695,-0.1693,0,-0.2096,-0.2007,-0.1968,-0.1944,-0.1932,-0.1894,-0.1893,-0.196,-0.1965,-0.2001,-0.1975,-0.1947,-0.1906,-0.1801,-0.1759,-0.1677,-0.1726,-0.1555,-0.1579,-0.1636,-0.1692,-0.1757,-0.1742,-0.1417,-0.1412,-0.1409,-0.1407,0,-0.1862,-0.1865,-0.18,-0.1761,-0.1747,-0.1731,-0.1743,-0.1741,-0.1823,-0.1816,-0.1793,-0.1752,-0.1675,-0.1555,-0.1492,-0.1447,-0.152,-0.1483,-0.1502,-0.1393,-0.1482,-0.1461,-0.1648,-0.1377,-0.138,-0.1382,-0.1384,-0.1385,-0.1716,-0.1648,-0.1608,-0.1567,-0.1568,-0.1562,-0.1516,-0.1557,-0.1543,-0.1489,-0.1575,-0.1439,-0.1423,-0.13,-0.1262,-0.1186,-0.1271,-0.1162,-0.1215,-0.1268,-0.1233,-0.1387,-0.1135,-0.1136,-0.1138,-0.1139,-0.114,0,-0.1521,-0.148,-0.1433,-0.1391,-0.1351,-0.1406,-0.1407,-0.135,-0.129,-0.1206,-0.1155,-0.1083,-0.1018,-0.1009,-0.0992,-0.095,-0.0951,-0.0954,-0.1004,-0.099,-0.1053,-0.1049,-0.0814,-0.0814,-0.0814,-0.0814,-0.0814,-0.0814,-0.142,-0.1309,-0.13,-0.1186,-0.1173,-0.1084,-0.1061,-0.1001,-0.0913,-0.0721,-0.0596,-0.0542,-0.0715,-0.0936,-0.093,-0.088,-0.0899,-0.0857,-0.0926,-0.0987,-0.1011,-0.1035,-0.1039,-0.0805,-0.0805,-0.0796,-0.0796,-0.0796]},{"header":{"parameterUnit":"m.s-1","parameterCategory":2,"la1":30.2991,"la2":30.254,"lo1":-89.0895,"lo2":-89.0444,"dy":0.0017,"dx":0.0017,"nx":28,"ny":28,"refTime":"2025-09-14T21:00:00:Z","depth":"0","parameterNumber":3,"parameterNumberName":"V-component_of_CURRENTS"},"data":[0,0,0,0,0,0,0,0,0,0,0,0,0,0,0,0,0,0,0,0,0,0,0,0,0,0,0,0,0,0,0,0,0,0,0,0,0,0,0,0,0,0,0,0,0,0,0,0,0,0,0,0,0,0,0,0,0,0,0.0194,0.0195,0,0.028,0.0281,0.0282,0.0353,0.0354,0.0355,0.0355,0.0461,0.0463,0.0465,0,0,0,0,0,0,0,0,0,0,0,0,0,0.0175,0.0174,0.0194,0.0195,0.0196,0.028,0.0282,0.0283,0.0353,0.0354,0.0355,0.0356,0.046,0.0463,0.0465,0,0,0,0,0,0,0,0,0,0,0,0,0,0.0215,0.0174,0.0194,0.0241,0.0246,0.028,0.0282,0.0283,0.0353,0.0354,0.0355,0.0356,0.0459,0.0463,0.0466,0.0465,0,0,0.0476,0.0477,0,0,0,0,0,0,0,0,0.0212,0.0215,0.0233,0.0238,0.0244,0.0307,0.0314,0.0345,0.0353,0.0313,0.0355,0.0357,0.041,0.0417,0.0432,0.047,0.0474,0.0476,0.0478,0.0479,0.048,0,0,0,0,0,0,0,0.0209,0.0212,0.0229,0.0234,0.024,0.0287,0.0293,0.032,0.0355,0.0317,0.0322,0.033,0.0413,0.0428,0.0435,0.0476,0.0476,0.0479,0.0481,0.0482,0.0511,0.051,0,0,0,0,0,0,0.0192,0.0209,0.0226,0.0231,0.023,0.0286,0.0293,0.0286,0.0355,0.0366,0.0329,0.0333,0.0422,0.0431,0.0439,0.0453,0.0479,0.0482,0.0484,0.0512,0.0511,0.051,0,0,0,0,0,0,0.0191,0.0192,0.0223,0.0223,0.023,0.0284,0.0277,0.0287,0.0301,0.0364,0.0376,0.0332,0.0424,0.0434,0.046,0.0458,0.0484,0.0487,0.0514,0.0512,0.051,0.0475,0,0,0,0,0,0,0.0189,0.019,0.0171,0.0221,0.0229,0.0229,0.0276,0.0288,0.0304,0.031,0.037,0.0382,0.0425,0.0454,0.0463,0.0463,0.0489,0.0515,0.0513,0.0511,0.0478,0.0472,0.0468,0,0,0,0,0,0.0188,0.0146,0.017,0.0172,0.0203,0.0228,0.0236,0.028,0.0303,0.0298,0.0344,0.038,0.0446,0.0456,0.0466,0.0467,0.0516,0.0514,0.0511,0.048,0.0473,0.0468,0,0,0,0,0,0,0.0113,0.0151,0.0178,0.0146,0.0183,0.024,0.0232,0.0269,0.0302,0.0305,0.0371,0.0384,0.0401,0.043,0.0439,0.0464,0.0484,0.0483,0.0457,0.0451,0.0446,0.0439,0.0492,0,0,0,0,0,0.0091,0.0078,0.0129,0.0104,0.0117,0.0175,0.0188,0.0221,0.0261,0.0277,0.0325,0.0365,0.0396,0.0421,0.0445,0.0465,0.048,0.0467,0.0462,0.0458,0.0456,0.045,0.0445,0.0501,0.0501,0.0501,0,0,0.005,0.0073,0.0062,0.0089,0.0119,0.0136,0.0185,0.0194,0.0219,0.0281,0.0313,0.0344,0.0392,0.0415,0.0425,0.0444,0.0452,0.0454,0.0451,0.0451,0.0447,0.0442,0.0437,0.0499,0.05,0.05,0,0,-0.0031,-0.0013,-0.0044,-0.0006,0.0037,0.0084,0.0084,0.0141,0.0173,0.0205,0.0254,0.0289,0.0334,0.0383,0.041,0.0389,0.0416,0.0383,0.0371,0.0365,0.0361,0.0357,0.0386,0.0385,0.0393,0.0393,0.0393,0,-0.0082,-0.0096,-0.0051,-0.0049,-0.002,0.0059,0.0055,0.0101,0.0162,0.0179,0.0204,0.0267,0.0326,0.036,0.0369,0.0383,0.0381,0.0396,0.036,0.0356,0.0353,0.0383,0.0383,0.0391,0.0391,0.0391,0.0391,0,-0.0163,-0.016,-0.0174,-0.0132,-0.0102,-0.0092,-0.0011,0.0015,0.0067,0.0117,0.0146,0.0218,0.0258,0.0283,0.0335,0.034,0.0347,0.0345,0.0378,0.0346,0.038,0.038,0.0388,0.0389,0.0389,0.039,0,0,-0.0303,-0.0244,-0.0243,-0.0221,-0.0135,-0.012,-0.008,-0.0025,-0.0013,0.0054,0.0065,0.0155,0.0187,0.0219,0.0274,0.0298,0.0312,0.0316,0.0316,0.0351,0.0307,0.0365,0.0372,0.0286,0.0285,0.0285,0.0346,0,-0.0372,-0.038,-0.0328,-0.0316,-0.0301,-0.0207,-0.0177,-0.0115,-0.0057,-0.0027,0.0056,0.0086,0.0165,0.0178,0.0215,0.0279,0.0305,0.0296,0.0328,0.033,0.039,0.0371,0.0421,0.0483,0.0347,0.0347,0.0347,0,-0.0456,-0.0439,-0.0444,-0.0381,-0.0373,-0.0354,-0.0292,-0.0255,-0.018,-0.0143,-0.0094,-0.0034,0.0048,0.0092,0.0194,0.0173,0.0238,0.0289,0.0292,0.0357,0.0387,0.0489,0.0489,0.0624,0.0348,0.0348,0.0348,0,-0.0544,-0.0515,-0.0517,-0.0489,-0.0415,-0.0412,-0.0374,-0.0303,-0.0273,-0.022,-0.0201,-0.0124,-0.0069,-0.0003,0.0161,0.0153,0.0256,0.0255,0.0368,0.0374,0.0432,0.0444,0.0572,0.0295,0.0295,0.0295,0.0295,0,-0.0608,-0.0607,-0.0561,-0.0552,-0.0561,-0.0491,-0.0495,-0.0448,-0.0396,-0.036,-0.027,-0.0224,-0.0097,0.0002,0.0113,0.0265,0.0223,0.0367,0.0386,0.0423,0.0433,0.0566,0.0608,0.0297,0.0297,0.0296,0.0296,0,-0.0674,-0.0648,-0.0644,-0.0601,-0.0595,-0.0597,-0.0551,-0.0551,-0.0493,-0.0448,-0.043,-0.0297,-0.0159,-0.0016,0.0122,0.0226,0.0434,0.0403,0.0464,0.049,0.0703,0.074,0.0864,0.0951,0.0514,0.0516,0.0517,0,-0.0697,-0.0705,-0.0683,-0.0689,-0.0669,-0.0664,-0.066,-0.0604,-0.0587,-0.047,-0.045,-0.031,-0.0167,0.0068,0.0246,0.0429,0.0525,0.0576,0.0576,0.073,0.0785,0.0806,0.0872,0.0648,0.0651,0.0653,0.0654,0,-0.0725,-0.0724,-0.0714,-0.0736,-0.0743,-0.0745,-0.073,-0.0725,-0.064,-0.0549,-0.0411,-0.0291,-0.0061,0.0187,0.0415,0.0526,0.0684,0.0621,0.0752,0.088,0.0938,0.1027,0.0617,0.0671,0.067,0.0668,0.0668,0.0667,-0.0735,-0.074,-0.0742,-0.076,-0.0783,-0.08,-0.0785,-0.0711,-0.0623,-0.0384,-0.0321,0.0003,0.017,0.0507,0.0623,0.0888,0.0838,0.0979,0.1007,0.1013,0.1109,0.0757,0.0847,0.0847,0.0846,0.0846,0.0845,0,-0.0722,-0.0737,-0.0764,-0.0785,-0.082,-0.0823,-0.0807,-0.0722,-0.0551,-0.0225,0.0021,0.0429,0.0674,0.086,0.1118,0.1271,0.1299,0.1349,0.1393,0.1439,0.111,0.113,0.1321,0.1321,0.1321,0.1321,0.1321,0.132,-0.071,-0.0729,-0.0747,-0.08,-0.0826,-0.0826,-0.0803,-0.0601,-0.0355,0.0194,0.0617,0.0883,0.1048,0.1338,0.1599,0.1624,0.1768,0.1745,0.1819,0.1598,0.1566,0.1535,0.1566,0.1845,0.1846,0.2158,0.2161,0.2164]}],[{"header":{"parameterUnit":"m.s-1","parameterCategory":2,"la1":30.2991,"la2":30.254,"lo1":-89.0895,"lo2":-89.0444,"dy":0.0017,"dx":0.0017,"nx":28,"ny":28,"refTime":"2025-09-14T21:00:00:Z","depth":"2","parameterNumber":2,"parameterNumberName":"U-component_of_CURRENTS"},"data":[0,0,0,0,0,0,0,0,0,0,0,0,0,0,0,0,0,0,0,0,0,0,0,0,0,0,0,0,0,0,0,0,0,0,0,0,0,0,0,0,0,0,0,0,0,0,0,0,0,0,0,0,0,0,0,0,0,0,-0.2232,-0.2232,0,-0.2314,-0.2315,-0.2316,-0.2405,-0.2405,-0.2406,-0.2407,-0.2548,-0.2551,-0.2554,0,0,0,0,0,0,0,0,0,0,0,0,0,-0.2076,-0.208,-0.2231,-0.2232,-0.2233,-0.2314,-0.2315,-0.2317,-0.2404,-0.2405,-0.2406,-0.2407,-0.2547,-0.255,-0.2554,0,0,0,0,0,0,0,0,0,0,0,0,0,-0.2155,-0.2081,-0.2231,-0.2282,-0.2287,-0.2313,-0.2315,-0.2317,-0.2404,-0.2405,-0.2407,-0.2408,-0.2545,-0.255,-0.2554,-0.256,0,0,-0.2568,-0.257,0,0,0,0,0,0,0,0,-0.215,-0.2161,-0.2274,-0.2279,-0.2284,-0.2345,-0.2312,-0.2399,-0.2404,-0.2365,-0.2407,-0.2408,-0.2481,-0.2491,-0.2511,-0.2566,-0.2572,-0.2569,-0.2571,-0.2573,-0.2575,0,0,0,0,0,0,0,-0.2145,-0.2158,-0.227,-0.2274,-0.2281,-0.2275,-0.2289,-0.2329,-0.2421,-0.2369,-0.2374,-0.2374,-0.2485,-0.2506,-0.2515,-0.2574,-0.2569,-0.2573,-0.2575,-0.2577,-0.2661,-0.266,0,0,0,0,0,0,-0.2127,-0.2153,-0.2267,-0.2271,-0.2213,-0.2277,-0.2292,-0.2329,-0.242,-0.2432,-0.2373,-0.2378,-0.2498,-0.2509,-0.252,-0.2555,-0.2573,-0.2578,-0.258,-0.2661,-0.2661,-0.266,0,0,0,0,0,0,-0.2124,-0.2138,-0.2263,-0.2207,-0.2222,-0.2278,-0.2319,-0.233,-0.2377,-0.2421,-0.2437,-0.241,-0.2499,-0.2514,-0.2538,-0.256,-0.258,-0.2584,-0.2662,-0.2661,-0.266,-0.261,0,0,0,0,0,0,-0.212,-0.2138,-0.2166,-0.2207,-0.2225,-0.231,-0.2317,-0.233,-0.2371,-0.2379,-0.2457,-0.247,-0.2501,-0.253,-0.2542,-0.2567,-0.2587,-0.2663,-0.2662,-0.2661,-0.2612,-0.2607,-0.2603,0,0,0,0,0,-0.2115,-0.2142,-0.2168,-0.2181,-0.2261,-0.2311,-0.2321,-0.2365,-0.2371,-0.2409,-0.2417,-0.2469,-0.2534,-0.2532,-0.2547,-0.2574,-0.2663,-0.2662,-0.2661,-0.2614,-0.2608,-0.2603,0,0,0,0,0,0,-0.209,-0.2155,-0.2184,-0.2232,-0.2282,-0.2324,-0.2341,-0.2374,-0.2412,-0.2417,-0.2453,-0.2466,-0.2508,-0.2534,-0.2531,-0.2592,-0.2612,-0.2614,-0.2572,-0.2567,-0.2563,-0.2529,-0.2591,0,0,0,0,0,-0.2096,-0.2147,-0.2198,-0.2245,-0.2255,-0.2302,-0.2326,-0.237,-0.2398,-0.242,-0.2458,-0.2487,-0.2511,-0.253,-0.2571,-0.2591,-0.2572,-0.262,-0.2615,-0.2612,-0.2592,-0.2541,-0.2529,-0.2656,-0.2656,-0.2656,0,0,-0.2096,-0.2141,-0.2169,-0.2244,-0.2271,-0.2298,-0.2322,-0.2372,-0.2409,-0.2426,-0.247,-0.2488,-0.2514,-0.254,-0.2562,-0.2565,-0.2568,-0.261,-0.2606,-0.2589,-0.2538,-0.2525,-0.2514,-0.2656,-0.2656,-0.2656,0,0,-0.2111,-0.2159,-0.2197,-0.2233,-0.229,-0.2315,-0.2332,-0.2387,-0.2425,-0.2462,-0.2471,-0.2462,-0.2537,-0.2523,-0.253,-0.2518,-0.2555,-0.2573,-0.2517,-0.2468,-0.2456,-0.2446,-0.2413,-0.2399,-0.256,-0.256,-0.256,0,-0.2116,-0.2154,-0.2215,-0.2248,-0.2247,-0.2317,-0.2326,-0.2386,-0.2451,-0.2441,-0.2479,-0.2484,-0.2513,-0.2481,-0.2479,-0.2507,-0.25,-0.2536,-0.2459,-0.2448,-0.2438,-0.2407,-0.2393,-0.2557,-0.2558,-0.2558,-0.2558,0,-0.2111,-0.2168,-0.2178,-0.224,-0.227,-0.2285,-0.2348,-0.2391,-0.2423,-0.2449,-0.2451,-0.2459,-0.2442,-0.2467,-0.2473,-0.2424,-0.2449,-0.2467,-0.2467,-0.2422,-0.2393,-0.2379,-0.2554,-0.2554,-0.2555,-0.2556,0,0,-0.2093,-0.2155,-0.218,-0.2184,-0.2246,-0.2269,-0.2314,-0.2332,-0.2335,-0.2397,-0.2361,-0.2376,-0.2367,-0.2369,-0.2381,-0.2336,-0.2261,-0.2375,-0.2373,-0.2332,-0.2172,-0.2117,-0.2097,-0.2278,-0.2275,-0.2273,-0.2182,0,-0.2068,-0.2097,-0.2141,-0.217,-0.216,-0.2212,-0.224,-0.2286,-0.2319,-0.2322,-0.2315,-0.2312,-0.2344,-0.2328,-0.2287,-0.2286,-0.2224,-0.2285,-0.223,-0.2228,-0.2175,-0.2078,-0.194,-0.184,-0.2169,-0.2166,-0.2165,0,-0.2043,-0.2064,-0.2055,-0.2092,-0.209,-0.2117,-0.2113,-0.2162,-0.2191,-0.2212,-0.2191,-0.2218,-0.2169,-0.2206,-0.2138,-0.219,-0.2161,-0.2151,-0.2148,-0.2098,-0.2145,-0.1938,-0.1804,-0.2142,-0.2144,-0.2146,-0.2147,0,-0.1953,-0.2013,-0.1981,-0.1988,-0.2038,-0.2033,-0.2059,-0.2101,-0.2123,-0.2134,-0.2134,-0.2106,-0.2096,-0.206,-0.2065,-0.2099,-0.1995,-0.2032,-0.1941,-0.194,-0.1806,-0.1796,-0.193,-0.193,-0.1931,-0.1931,-0.1931,0,-0.1881,-0.1881,-0.1938,-0.1922,-0.1896,-0.1962,-0.1946,-0.1982,-0.2018,-0.2015,-0.2065,-0.2048,-0.2062,-0.2032,-0.2022,-0.1941,-0.1951,-0.1893,-0.1889,-0.1788,-0.1777,-0.2035,-0.2049,-0.1927,-0.1928,-0.1929,-0.1929,0,-0.1793,-0.1826,-0.1804,-0.184,-0.1852,-0.1839,-0.1894,-0.1894,-0.1948,-0.1944,-0.1945,-0.1988,-0.1943,-0.1947,-0.1886,-0.1872,-0.1808,-0.1768,-0.166,-0.1643,-0.1798,-0.181,-0.1638,-0.1635,-0.1632,-0.163,-0.1628,0,-0.1724,-0.1706,-0.1736,-0.173,-0.1742,-0.1751,-0.1761,-0.1837,-0.185,-0.1899,-0.1882,-0.1863,-0.1815,-0.173,-0.168,-0.1604,-0.1696,-0.1457,-0.1465,-0.1742,-0.1757,-0.1774,-0.1789,-0.1278,-0.1273,-0.127,-0.1267,0,-0.1595,-0.162,-0.161,-0.1606,-0.1612,-0.1622,-0.1648,-0.1656,-0.1738,-0.1743,-0.1728,-0.169,-0.1612,-0.1471,-0.1404,-0.1357,-0.1464,-0.1376,-0.1648,-0.1386,-0.1397,-0.1415,-0.1443,-0.1233,-0.1236,-0.1239,-0.1241,-0.1242,-0.1496,-0.1468,-0.1475,-0.1461,-0.1475,-0.1477,-0.1443,-0.1491,-0.149,-0.1481,-0.1537,-0.1444,-0.1405,-0.121,-0.1135,-0.1096,-0.1202,-0.1171,-0.1184,-0.1201,-0.1187,-0.1194,-0.099,-0.0992,-0.0994,-0.0995,-0.0996,0,-0.1355,-0.135,-0.1332,-0.1316,-0.1285,-0.134,-0.1347,-0.1295,-0.1247,-0.128,-0.1246,-0.1091,-0.0983,-0.0959,-0.0827,-0.0804,-0.0814,-0.0786,-0.0802,-0.0834,-0.0864,-0.0836,-0.0543,-0.0542,-0.0541,-0.054,0,0,-0.1281,-0.1222,-0.122,-0.1127,-0.1119,-0.1039,-0.1016,-0.0965,-0.0951,-0.0893,-0.0867,-0.0934,-0.0922,-0.0741,-0.0686,-0.0592,-0.0712,-0.0559,-0.0918,-0.0968,-0.0996,-0.1074,-0.1066,0,0,0,0,0]},{"header":{"parameterUnit":"m.s-1","parameterCategory":2,"la1":30.2991,"la2":30.254,"lo1":-89.0895,"lo2":-89.0444,"dy":0.0017,"dx":0.0017,"nx":28,"ny":28,"refTime":"2025-09-14T21:00:00:Z","depth":"2","parameterNumber":3,"parameterNumberName":"V-component_of_CURRENTS"},"data":[0,0,0,0,0,0,0,0,0,0,0,0,0,0,0,0,0,0,0,0,0,0,0,0,0,0,0,0,0,0,0,0,0,0,0,0,0,0,0,0,0,0,0,0,0,0,0,0,0,0,0,0,0,0,0,0,0,0,-0.034,-0.0339,0,-0.0225,-0.0224,-0.0222,-0.0108,-0.0107,-0.0106,-0.0105,0.0193,0.02,0.0207,0,0,0,0,0,0,0,0,0,0,0,0,0,-0.043,-0.0429,-0.034,-0.0339,-0.0338,-0.0226,-0.0224,-0.0222,-0.0108,-0.0107,-0.0106,-0.0104,0.0191,0.0199,0.0207,0,0,0,0,0,0,0,0,0,0,0,0,0,-0.0358,-0.0428,-0.034,-0.027,-0.0263,-0.0226,-0.0224,-0.0221,-0.0109,-0.0107,-0.0105,-0.0104,0.0189,0.0199,0.0209,0.0236,0,0,0.024,0.0244,0,0,0,0,0,0,0,0,-0.0362,-0.0354,-0.0282,-0.0275,-0.0267,-0.0182,-0.0146,-0.006,-0.0109,-0.0164,-0.0105,-0.0103,0.0081,0.01,0.012,0.025,0.0263,0.0241,0.0247,0.0251,0.0254,0,0,0,0,0,0,0,-0.0367,-0.0358,-0.0291,-0.0281,-0.0272,-0.0234,-0.0222,-0.013,-0.0046,-0.0159,-0.0151,-0.0145,0.0087,0.011,0.0129,0.0267,0.0241,0.025,0.0256,0.026,0.0442,0.044,0,0,0,0,0,0,-0.0392,-0.0363,-0.0295,-0.0288,-0.0315,-0.0235,-0.0221,-0.0208,-0.0051,-0.0028,-0.0146,-0.014,0.0092,0.0116,0.014,0.0211,0.0251,0.0261,0.0267,0.0443,0.0441,0.044,0,0,0,0,0,0,-0.0394,-0.0386,-0.0299,-0.0326,-0.0312,-0.0236,-0.0222,-0.0207,-0.017,-0.0044,-0.0016,-0.0124,0.0094,0.0125,0.0188,0.0223,0.0266,0.0275,0.0444,0.0442,0.0441,0.0336,0,0,0,0,0,0,-0.0397,-0.0388,-0.0386,-0.0328,-0.0312,-0.0274,-0.0224,-0.0206,-0.0171,-0.0161,-0.0016,0.0012,0.0098,0.0171,0.0198,0.0238,0.0283,0.0446,0.0444,0.0441,0.0341,0.0331,0.0322,0,0,0,0,0,-0.04,-0.0407,-0.0386,-0.0378,-0.0312,-0.0275,-0.0263,-0.02,-0.0173,-0.016,-0.0095,0.0009,0.0176,0.0177,0.0209,0.0253,0.0447,0.0444,0.0441,0.0345,0.0333,0.0322,0,0,0,0,0,0,-0.0439,-0.0394,-0.037,-0.036,-0.0321,-0.0257,-0.0246,-0.0206,-0.0146,-0.0129,-0.0017,0.0014,0.0093,0.0163,0.0162,0.0291,0.0334,0.0337,0.025,0.024,0.023,0.0227,0.0291,0,0,0,0,0,-0.0452,-0.0446,-0.0394,-0.0387,-0.0373,-0.0311,-0.0289,-0.0242,-0.0186,-0.0156,-0.0064,0.0026,0.0102,0.0157,0.0242,0.0304,0.035,0.0352,0.0342,0.0334,0.0348,0.0382,0.0377,0.043,0.043,0.043,0,0,-0.0468,-0.0442,-0.0438,-0.0396,-0.0362,-0.0335,-0.0291,-0.0256,-0.0221,-0.0131,-0.0061,0.0005,0.0107,0.0175,0.0219,0.0242,0.0339,0.033,0.0322,0.0342,0.0379,0.0374,0.0369,0.0428,0.0428,0.0429,0,0,-0.0494,-0.0473,-0.0472,-0.0439,-0.0391,-0.0355,-0.0348,-0.0279,-0.0236,-0.0187,-0.0111,-0.0057,0.0072,0.014,0.0191,0.0174,0.0285,0.0221,0.0184,0.0216,0.0212,0.021,0.0245,0.0247,0.0218,0.0218,0.0218,0,-0.0513,-0.0496,-0.0467,-0.0447,-0.0423,-0.0368,-0.0349,-0.0304,-0.022,-0.0192,-0.0173,-0.003,0.0054,0.0132,0.0124,0.016,0.0194,0.0222,0.0204,0.0202,0.0202,0.0239,0.0243,0.0212,0.0213,0.0214,0.0214,0,-0.0533,-0.0507,-0.0506,-0.0464,-0.0438,-0.0415,-0.0354,-0.0318,-0.0276,-0.0227,-0.0153,-0.0079,0.0006,0.0041,0.0083,0.0134,0.0164,0.0184,0.0233,0.019,0.0232,0.0237,0.0205,0.0207,0.0208,0.021,0,0,-0.0589,-0.0534,-0.0524,-0.0503,-0.044,-0.0421,-0.0379,-0.0327,-0.0301,-0.0231,-0.0195,-0.0099,-0.0062,-0.0005,0.006,0.0087,0.0098,0.013,0.0134,0.0167,0.0174,0.0204,0.0214,0.0115,0.0116,0.0116,0.02,0,-0.0606,-0.058,-0.0544,-0.0511,-0.0492,-0.0434,-0.0404,-0.0347,-0.0302,-0.0254,-0.0182,-0.0121,-0.0075,-0.0042,-0.0009,0.0084,0.011,0.0074,0.0213,0.0217,0.025,0.022,0.0209,0.0285,0.0206,0.0207,0.0207,0,-0.0626,-0.0602,-0.058,-0.0526,-0.0515,-0.0495,-0.0446,-0.0407,-0.0332,-0.0296,-0.0237,-0.0172,-0.0097,-0.0074,0.005,0.0027,0.0094,0.0148,0.0153,0.0229,0.0258,0.0319,0.0298,0.0217,0.0216,0.0216,0.0215,0,-0.0673,-0.0622,-0.0611,-0.0589,-0.0529,-0.0516,-0.0489,-0.0425,-0.0395,-0.0324,-0.03,-0.0204,-0.015,-0.0064,0.0061,0.0056,0.0188,0.0193,0.0282,0.0285,0.0331,0.0337,0.0264,0.0263,0.0263,0.0263,0.0263,0,-0.0695,-0.0677,-0.0635,-0.0622,-0.0616,-0.0559,-0.0547,-0.0504,-0.0447,-0.041,-0.0326,-0.0274,-0.0147,-0.0048,0.0051,0.0192,0.0182,0.0282,0.0309,0.0291,0.0293,0.0284,0.0285,0.0266,0.0266,0.0265,0.0264,0,-0.0726,-0.07,-0.0684,-0.0641,-0.0635,-0.063,-0.0592,-0.058,-0.0519,-0.0469,-0.0447,-0.0322,-0.0186,-0.0055,0.01,0.0184,0.0308,0.0357,0.0332,0.0354,0.0384,0.0379,0.0458,0.046,0.0461,0.0463,0.0464,0,-0.0738,-0.0732,-0.0711,-0.0717,-0.07,-0.0689,-0.0684,-0.0626,-0.0606,-0.0487,-0.0464,-0.0324,-0.0201,0.0035,0.0195,0.0369,0.0361,0.0454,0.0439,0.0386,0.0405,0.0397,0.039,0.0453,0.0454,0.0455,0.0455,0,-0.075,-0.0748,-0.0737,-0.0757,-0.0763,-0.0764,-0.0746,-0.074,-0.0656,-0.0587,-0.0462,-0.0352,-0.0116,0.0087,0.0302,0.0399,0.0423,0.0475,0.0436,0.0401,0.0387,0.0403,0.0396,0.0462,0.0461,0.046,0.046,0.046,-0.0761,-0.0767,-0.0767,-0.0785,-0.0804,-0.0821,-0.0814,-0.078,-0.0723,-0.0608,-0.0484,-0.0305,-0.0092,0.0211,0.0374,0.0503,0.0501,0.0535,0.0531,0.0526,0.0506,0.0495,0.0587,0.0587,0.0587,0.0587,0.0587,0,-0.076,-0.077,-0.0794,-0.0816,-0.0848,-0.0848,-0.0839,-0.0808,-0.0732,-0.0619,-0.0475,-0.0225,0.0014,0.0208,0.043,0.0578,0.0555,0.0589,0.0537,0.0531,0.0526,0.0503,0.0584,0.0584,0.0584,0.0585,0,0,-0.076,-0.0773,-0.0787,-0.084,-0.0865,-0.0876,-0.0865,-0.0805,-0.0717,-0.0588,-0.0461,-0.0273,0.0008,0.0165,0.0361,0.0472,0.0453,0.0476,0.0467,0.0378,0.037,0.0492,0.0451,0,0,0,0,0]}],[{"header":{"parameterUnit":"m.s-1","parameterCategory":2,"la1":30.2991,"la2":30.254,"lo1":-89.0895,"lo2":-89.0444,"dy":0.0017,"dx":0.0017,"nx":28,"ny":28,"refTime":"2025-09-14T21:00:00:Z","depth":"4","parameterNumber":2,"parameterNumberName":"U-component_of_CURRENTS"},"data":[0,0,0,0,0,0,0,0,0,0,0,0,0,0,0,0,0,0,0,0,0,0,0,0,0,0,0,0,0,0,0,0,0,0,0,0,0,0,0,0,0,0,0,0,0,0,0,0,0,0,0,0,0,0,0,0,0,0,-0.1065,-0.1065,0,-0.1136,-0.1137,-0.1138,-0.1155,-0.1155,-0.1154,-0.1154,-0.1223,-0.1225,-0.1227,0,0,0,0,0,0,0,0,0,0,0,0,0,-0.0996,-0.0997,-0.1064,-0.1066,-0.1067,-0.1136,-0.1137,-0.1138,-0.1155,-0.1155,-0.1154,-0.1154,-0.1222,-0.1225,-0.1228,0,0,0,0,0,0,0,0,0,0,0,0,0,-0.1041,-0.0997,-0.1064,-0.1085,-0.1087,-0.1136,-0.1137,-0.1138,-0.1155,-0.1155,-0.1154,-0.1154,-0.1222,-0.1225,-0.1228,-0.1258,0,0,-0.1238,-0.1239,0,0,0,0,0,0,0,0,-0.1039,-0.1044,-0.1081,-0.1083,-0.1086,-0.1137,-0.1139,-0.1179,-0.1155,-0.1128,-0.1154,-0.1153,-0.1196,-0.1201,-0.1214,-0.1262,-0.1265,-0.1238,-0.124,-0.1242,-0.1242,0,0,0,0,0,0,0,-0.1035,-0.1041,-0.1091,-0.1082,-0.1085,-0.1109,-0.1114,-0.1146,-0.1163,-0.113,-0.1132,-0.1142,-0.1197,-0.121,-0.1215,-0.1266,-0.1238,-0.1241,-0.1243,-0.1244,-0.1382,-0.1384,0,0,0,0,0,0,-0.1027,-0.1038,-0.1089,-0.1094,-0.1062,-0.111,-0.1116,-0.112,-0.1162,-0.1169,-0.1143,-0.1143,-0.1205,-0.1212,-0.1218,-0.1286,-0.1242,-0.1245,-0.1246,-0.1381,-0.1383,-0.1385,0,0,0,0,0,0,-0.1025,-0.1031,-0.1086,-0.1069,-0.1078,-0.1112,-0.1117,-0.1122,-0.1148,-0.1172,-0.1178,-0.1165,-0.1205,-0.1213,-0.1262,-0.1287,-0.1246,-0.1249,-0.1379,-0.1381,-0.1384,-0.1402,0,0,0,0,0,0,-0.1023,-0.103,-0.1039,-0.1068,-0.1078,-0.1118,-0.1118,-0.1124,-0.1155,-0.1156,-0.1193,-0.1198,-0.1205,-0.1257,-0.1265,-0.1291,-0.1252,-0.1376,-0.138,-0.1383,-0.14,-0.1405,-0.141,0,0,0,0,0,-0.102,-0.1037,-0.1038,-0.1045,-0.1086,-0.1119,-0.1126,-0.1148,-0.1157,-0.1169,-0.1201,-0.1198,-0.1283,-0.1261,-0.127,-0.1297,-0.1375,-0.1379,-0.1383,-0.1397,-0.1404,-0.141,0,0,0,0,0,0,-0.101,-0.1041,-0.1043,-0.1067,-0.109,-0.1122,-0.1148,-0.1159,-0.1195,-0.1207,-0.1221,-0.1229,-0.1278,-0.1292,-0.1268,-0.1349,-0.1329,-0.1334,-0.1337,-0.1344,-0.1349,-0.1343,-0.1254,0,0,0,0,0,-0.1012,-0.1033,-0.1058,-0.1077,-0.1094,-0.1123,-0.1144,-0.1159,-0.1192,-0.1207,-0.1237,-0.1272,-0.1301,-0.1324,-0.1353,-0.1403,-0.1398,-0.1427,-0.1433,-0.1437,-0.144,-0.1467,-0.1474,-0.1397,-0.1397,-0.1397,0,0,-0.1011,-0.1034,-0.1044,-0.1077,-0.1103,-0.1134,-0.1135,-0.1175,-0.1197,-0.1211,-0.1266,-0.1292,-0.1318,-0.1367,-0.1391,-0.1383,-0.1453,-0.1442,-0.1445,-0.1446,-0.1472,-0.1479,-0.1485,-0.14,-0.1399,-0.1399,0,0,-0.1033,-0.1045,-0.1076,-0.1105,-0.115,-0.1158,-0.1171,-0.1216,-0.1231,-0.1284,-0.1297,-0.1336,-0.1398,-0.1411,-0.1426,-0.1481,-0.1476,-0.1503,-0.153,-0.1557,-0.1562,-0.1568,-0.1548,-0.1552,-0.151,-0.151,-0.151,0,-0.1033,-0.1073,-0.1089,-0.1136,-0.1165,-0.1169,-0.121,-0.1223,-0.1277,-0.1308,-0.1306,-0.1408,-0.1412,-0.1468,-0.1477,-0.149,-0.1498,-0.1499,-0.1561,-0.1566,-0.1572,-0.155,-0.1554,-0.1512,-0.1512,-0.1511,-0.1511,0,-0.1079,-0.1121,-0.1147,-0.1195,-0.1223,-0.1261,-0.128,-0.1312,-0.1333,-0.1358,-0.143,-0.1448,-0.1509,-0.1515,-0.1508,-0.1559,-0.1549,-0.1557,-0.1538,-0.158,-0.1555,-0.1558,-0.1514,-0.1513,-0.1513,-0.1512,0,0,-0.105,-0.1155,-0.1169,-0.1212,-0.1263,-0.1291,-0.1328,-0.1368,-0.1408,-0.1453,-0.1512,-0.1546,-0.157,-0.1587,-0.1593,-0.1608,-0.162,-0.1602,-0.1602,-0.1568,-0.166,-0.1529,-0.1519,-0.1653,-0.1655,-0.1656,-0.1618,0,-0.1079,-0.1177,-0.1217,-0.1295,-0.1341,-0.1372,-0.1405,-0.1447,-0.1476,-0.1529,-0.1552,-0.1603,-0.1591,-0.1623,-0.1639,-0.1629,-0.1635,-0.1628,-0.1636,-0.1635,-0.1504,-0.1522,-0.166,-0.162,-0.1621,-0.1622,-0.1622,0,-0.1111,-0.1172,-0.1264,-0.136,-0.1384,-0.1424,-0.1492,-0.1526,-0.1583,-0.1615,-0.1676,-0.1691,-0.1716,-0.1695,-0.1708,-0.1714,-0.1689,-0.1672,-0.1671,-0.1546,-0.1512,-0.1578,-0.1628,-0.1627,-0.1627,-0.1626,-0.1626,0,-0.1087,-0.1205,-0.1277,-0.1314,-0.1412,-0.1461,-0.15,-0.1567,-0.1595,-0.1668,-0.1699,-0.1754,-0.1761,-0.1773,-0.172,-0.1731,-0.1715,-0.1724,-0.1583,-0.1572,-0.1691,-0.1686,-0.1734,-0.1734,-0.1734,-0.1734,-0.1734,0,-0.1094,-0.116,-0.1281,-0.1323,-0.1395,-0.1474,-0.1541,-0.1592,-0.1658,-0.1682,-0.174,-0.1749,-0.1784,-0.1771,-0.1743,-0.1653,-0.1734,-0.1578,-0.1559,-0.1697,-0.1694,-0.1691,-0.1687,-0.1732,-0.1733,-0.1733,-0.1733,0,-0.1063,-0.1145,-0.1234,-0.1355,-0.1391,-0.1444,-0.1538,-0.1574,-0.1652,-0.1682,-0.17,-0.1743,-0.1712,-0.1716,-0.1699,-0.1646,-0.1596,-0.1545,-0.1659,-0.1648,-0.143,-0.1427,-0.1391,-0.1387,-0.1383,-0.1379,-0.1376,0,-0.1054,-0.1106,-0.1238,-0.1269,-0.1325,-0.1409,-0.1446,-0.1549,-0.1574,-0.1649,-0.164,-0.1647,-0.1651,-0.1515,-0.1545,-0.1485,-0.1467,-0.1441,-0.1462,-0.1412,-0.1398,-0.1402,-0.1405,-0.137,-0.1369,-0.1368,-0.1367,0,-0.1027,-0.1087,-0.1144,-0.1208,-0.1261,-0.1316,-0.1382,-0.1391,-0.1484,-0.157,-0.1523,-0.1495,-0.1447,-0.1415,-0.1368,-0.1335,-0.1467,-0.1399,-0.1408,-0.1427,-0.1386,-0.1376,-0.1384,-0.1353,-0.1355,-0.1356,-0.1357,0,-0.0989,-0.101,-0.1078,-0.1119,-0.1177,-0.1191,-0.1251,-0.1266,-0.1304,-0.1394,-0.1367,-0.1374,-0.1417,-0.1333,-0.1297,-0.1245,-0.1232,-0.1209,-0.1228,-0.1244,-0.1213,-0.114,-0.1008,0,0,0,0,0,-0.0938,-0.0942,-0.0976,-0.1009,-0.1061,-0.1091,-0.1181,-0.124,-0.1334,-0.1257,-0.131,-0.1255,-0.1191,-0.1203,-0.1114,-0.1232,-0.1242,-0.1127,-0.1228,-0.1275,-0.1291,-0.1268,0,0,0,0,0,0,-0.0891,-0.093,-0.0938,-0.0902,-0.0896,-0.094,-0.0991,-0.1064,-0.1035,-0.1131,-0.1093,-0.1169,-0.1117,-0.1196,-0.1077,-0.1081,-0.1119,-0.1146,-0.1142,-0.1265,-0.128,-0.1293,-0.1276,0,0,0,0,0]},{"header":{"parameterUnit":"m.s-1","parameterCategory":2,"la1":30.2991,"la2":30.254,"lo1":-89.0895,"lo2":-89.0444,"dy":0.0017,"dx":0.0017,"nx":28,"ny":28,"refTime":"2025-09-14T21:00:00:Z","depth":"4","parameterNumber":3,"parameterNumberName":"V-component_of_CURRENTS"},"data":[0,0,0,0,0,0,0,0,0,0,0,0,0,0,0,0,0,0,0,0,0,0,0,0,0,0,0,0,0,0,0,0,0,0,0,0,0,0,0,0,0,0,0,0,0,0,0,0,0,0,0,0,0,0,0,0,0,0,-0.0374,-0.0374,0,-0.0371,-0.0371,-0.0371,-0.0368,-0.0368,-0.0368,-0.0368,-0.0311,-0.031,-0.0308,0,0,0,0,0,0,0,0,0,0,0,0,0,-0.036,-0.0361,-0.0374,-0.0374,-0.0373,-0.0371,-0.0371,-0.0371,-0.0368,-0.0368,-0.0368,-0.0368,-0.0311,-0.031,-0.0308,0,0,0,0,0,0,0,0,0,0,0,0,0,-0.0364,-0.0361,-0.0374,-0.0371,-0.037,-0.0371,-0.0371,-0.0371,-0.0368,-0.0368,-0.0368,-0.0367,-0.0312,-0.031,-0.0308,-0.0301,0,0,-0.0302,-0.0301,0,0,0,0,0,0,0,0,-0.0364,-0.0365,-0.0371,-0.0371,-0.037,-0.0368,-0.0345,-0.0344,-0.0368,-0.0371,-0.0368,-0.0367,-0.0324,-0.0321,-0.0324,-0.0298,-0.0296,-0.0302,-0.03,-0.03,-0.0299,0,0,0,0,0,0,0,-0.0364,-0.0365,-0.0374,-0.0371,-0.037,-0.0364,-0.0364,-0.0346,-0.0349,-0.037,-0.037,-0.0367,-0.0324,-0.0326,-0.0323,-0.0295,-0.0302,-0.03,-0.0299,-0.0298,-0.0259,-0.0259,0,0,0,0,0,0,-0.0362,-0.0365,-0.0374,-0.0374,-0.0365,-0.0364,-0.0365,-0.037,-0.035,-0.0347,-0.0367,-0.0367,-0.033,-0.0325,-0.0321,-0.031,-0.03,-0.0298,-0.0296,-0.0259,-0.0259,-0.0259,0,0,0,0,0,0,-0.0362,-0.0364,-0.0374,-0.0367,-0.0368,-0.0365,-0.0371,-0.037,-0.0377,-0.0349,-0.0344,-0.0374,-0.0329,-0.0323,-0.0311,-0.0307,-0.0297,-0.0295,-0.0259,-0.0259,-0.0259,-0.0288,0,0,0,0,0,0,-0.0362,-0.0364,-0.0373,-0.0368,-0.0368,-0.0384,-0.0371,-0.0371,-0.0375,-0.0374,-0.0353,-0.0347,-0.0329,-0.0314,-0.0309,-0.0304,-0.0293,-0.0258,-0.0259,-0.0259,-0.0287,-0.0289,-0.0291,0,0,0,0,0,-0.0362,-0.0374,-0.0374,-0.0375,-0.038,-0.0384,-0.0385,-0.0381,-0.0375,-0.0385,-0.0368,-0.0348,-0.0312,-0.0313,-0.0307,-0.0301,-0.0258,-0.0259,-0.0259,-0.0286,-0.0289,-0.0291,0,0,0,0,0,0,-0.0373,-0.0374,-0.0375,-0.0387,-0.0389,-0.0383,-0.0389,-0.0386,-0.0382,-0.038,-0.0353,-0.0346,-0.0336,-0.0316,-0.0317,-0.0292,-0.0281,-0.028,-0.0303,-0.0306,-0.0308,-0.028,-0.0292,0,0,0,0,0,-0.038,-0.0392,-0.0389,-0.0402,-0.0401,-0.0397,-0.0399,-0.0399,-0.039,-0.0389,-0.037,-0.0349,-0.0333,-0.0318,-0.0305,-0.0288,-0.0244,-0.028,-0.0282,-0.0284,-0.0257,-0.0189,-0.0182,-0.0261,-0.0261,-0.0261,0,0,-0.0392,-0.0391,-0.0401,-0.0405,-0.0405,-0.0408,-0.0399,-0.0406,-0.0409,-0.0382,-0.0378,-0.0361,-0.0333,-0.032,-0.0312,-0.0301,-0.0246,-0.0285,-0.0287,-0.0258,-0.0188,-0.018,-0.0173,-0.0261,-0.0261,-0.0261,0,0,-0.0408,-0.0416,-0.0427,-0.0426,-0.0426,-0.0425,-0.0429,-0.0424,-0.0424,-0.0422,-0.04,-0.0372,-0.0358,-0.0323,-0.0307,-0.0309,-0.0267,-0.0317,-0.0294,-0.023,-0.0222,-0.0214,-0.0174,-0.0163,-0.031,-0.031,-0.031,0,-0.042,-0.0429,-0.0431,-0.0432,-0.0427,-0.0433,-0.0434,-0.044,-0.0433,-0.0416,-0.0426,-0.0365,-0.0351,-0.03,-0.0307,-0.031,-0.0276,-0.0289,-0.023,-0.0222,-0.0213,-0.0174,-0.0161,-0.0311,-0.0311,-0.0311,-0.0311,0,-0.0439,-0.0442,-0.0446,-0.0449,-0.0449,-0.0455,-0.0453,-0.0455,-0.0453,-0.0439,-0.0401,-0.0373,-0.0324,-0.0326,-0.0319,-0.0253,-0.0253,-0.0248,-0.022,-0.0207,-0.0167,-0.0153,-0.0313,-0.0313,-0.0312,-0.0312,0,0,-0.0471,-0.0462,-0.0463,-0.0457,-0.0455,-0.0457,-0.0457,-0.0444,-0.0428,-0.0416,-0.0372,-0.0343,-0.0309,-0.0286,-0.0265,-0.0208,-0.0144,-0.0205,-0.0201,-0.016,-0.0014,-0.0043,-0.003,-0.0131,-0.0128,-0.0125,-0.0019,0,-0.0483,-0.0484,-0.0474,-0.0476,-0.0473,-0.0461,-0.0456,-0.0442,-0.0429,-0.0394,-0.0343,-0.0308,-0.0302,-0.0277,-0.0217,-0.0166,-0.0103,-0.0173,-0.0036,-0.0032,-0.0054,-0.0013,-0.0116,-0.0008,-0.0005,-0.0002,-0.0001,0,-0.0499,-0.0495,-0.0496,-0.0471,-0.0467,-0.0473,-0.0445,-0.044,-0.0391,-0.0371,-0.0307,-0.0275,-0.0194,-0.0197,-0.0062,-0.0111,-0.0053,-0.0011,-0.0006,-0.0002,-0.0033,-0.0017,0.0026,0.0024,0.0022,0.002,0.0018,0,-0.0513,-0.0504,-0.0505,-0.05,-0.0482,-0.0476,-0.0469,-0.0431,-0.0419,-0.0352,-0.0325,-0.0224,-0.0184,-0.0082,-0.001,-0.0028,0.0134,0.0119,0.0158,0.0155,0.0161,0.0152,0.0244,0.0244,0.0244,0.0244,0.0243,0,-0.0517,-0.0519,-0.0518,-0.0517,-0.052,-0.0491,-0.0482,-0.0457,-0.041,-0.0379,-0.0313,-0.0263,-0.0152,-0.0061,0.0018,0.0127,0.0162,0.0187,0.0196,0.0139,0.0127,0.0169,0.0159,0.0248,0.0247,0.0246,0.0245,0,-0.0528,-0.0526,-0.0532,-0.0525,-0.0529,-0.0532,-0.052,-0.0507,-0.0456,-0.0411,-0.039,-0.0287,-0.0168,-0.0058,0.0099,0.0147,0.0262,0.0296,0.0221,0.0219,0.0232,0.0219,0.036,0.036,0.0361,0.0361,0.0361,0,-0.053,-0.0535,-0.0556,-0.0574,-0.0578,-0.0583,-0.0587,-0.0545,-0.0526,-0.0423,-0.0399,-0.0279,-0.0202,0.0004,0.0112,0.0277,0.029,0.0343,0.0305,0.0257,0.0252,0.0238,0.0225,0.0361,0.0361,0.0361,0.0361,0,-0.0537,-0.0555,-0.0564,-0.0605,-0.0626,-0.064,-0.0637,-0.0625,-0.0557,-0.0513,-0.0389,-0.0271,-0.0138,0.0006,0.0129,0.0244,0.0305,0.0345,0.0345,0.0311,0.026,0.0251,0.0238,0.0362,0.0362,0.0362,0.0362,0,-0.0551,-0.0569,-0.0594,-0.0625,-0.0663,-0.068,-0.0675,-0.0629,-0.0595,-0.0472,-0.0432,-0.0268,-0.0171,-0.0009,0.0109,0.0213,0.0233,0.0253,0.0259,0.0259,0.0186,0.0104,0.0192,0,0,0,0,0,-0.0556,-0.0574,-0.0609,-0.0643,-0.0685,-0.0701,-0.0698,-0.0679,-0.0614,-0.0531,-0.0474,-0.0339,-0.014,-0.0052,0.005,0.0087,0.0227,0.0206,0.0247,0.0365,0.0365,0.0292,0,0,0,0,0,0,-0.0557,-0.0591,-0.0605,-0.0654,-0.0682,-0.0718,-0.0717,-0.0675,-0.0618,-0.0535,-0.0429,-0.0333,-0.0149,-0.0199,0.0047,0.008,0.0116,0.0309,0.0311,0.0366,0.0365,0.0365,0.0289,0,0,0,0,0]}]]